FW5345 Weather Reports


time (UTC)temp
F
wind
direction
speed
knots
gust
knots
rain 1hr
in
rain 24hr
in
rain mn
in
humidity
%
barometer
mb
20260504204536 80 287 4.3 10.4 0.00 0.00 0.00 33 1010.8
20260504203032 79 310 3.5 9.6 0.00 0.00 0.00 36 1010.9
20260504201534 78 314 5.2 10.4 0.00 0.00 0.00 38 1011.0
20260504200036 78 326 5.2 8.7 0.00 0.00 0.00 40 1011.0
20260504194533 78 11 5.2 9.6 0.00 0.00 0.00 41 1010.9
20260504193111 78 10 5.2 10.4 0.00 0.00 0.00 40 1011.0
20260504191534 78 346 4.3 7.0 0.00 0.00 0.00 41 1011.2
20260504190037 77 357 4.3 7.8 0.00 0.00 0.00 43 1011.2
20260504184533 76 12 5.2 7.8 0.00 0.00 0.00 44 1011.3
20260504183032 76 11 5.2 7.8 0.00 0.00 0.00 45 1011.3
20260504181535 76 9 3.5 6.1 0.00 0.00 0.00 45 1011.3
20260504174531 74 338 3.5 7.8 0.00 0.00 0.00 44 1011.4
20260504173035 74 4 3.5 6.1 0.00 0.00 0.00 44 1011.3
20260504171535 73 356 2.6 5.2 0.00 0.00 0.00 46 1011.3
20260504170112 71 340 1.7 5.2 0.00 0.00 0.00 49 1011.4
20260504130109 51 157 2.6 3.5 0.00 0.00 0.00 76 1010.5
20260504120143 53 160 2.6 3.5 0.00 0.00 0.00 72 1010.5
20260504081530 55 159 2.6 3.5 0.00 0.00 0.00 64 1011.2
20260504044551 62 149 2.6 3.5 0.00 0.00 0.00 54 1010.8
20260504041540 64 153 3.5 5.2 0.00 0.00 0.00 51 1010.6
20260504040043 66 157 3.5 5.2 0.00 0.00 0.00 48 1010.3
20260504033036 68 164 3.5 5.2 0.00 0.00 0.00 46 1010.1
20260504031645 71 177 2.6 4.3 0.00 0.00 0.00 44 1009.9
20260504030106 74 167 2.6 4.3 0.00 0.00 0.00 39 1009.8
20260504024535 77 229 0.9 2.6 0.00 0.00 0.00 34 1009.8
20260504023035 80 289 0.0 1.7 0.00 0.00 0.00 32 1009.8
20260504021537 80 292 1.7 3.5 0.00 0.00 0.00 30 1010.1
20260504014534 81 297 1.7 3.5 0.00 0.00 0.00 29 1010.2
20260504013035 82 300 2.6 4.3 0.00 0.00 0.00 27 1010.2
20260504011538 82 323 1.7 4.3 0.00 0.00 0.00 25 1010.5
20260504010110 83 318 3.5 5.2 0.00 0.00 0.00 25 1010.6
20260504004535 84 335 1.7 4.3 0.00 0.00 0.00 24 1010.7
20260504003033 83 338 1.7 4.3 0.00 0.00 0.00 25 1010.8
20260504001531 83 330 3.5 7.0 0.00 0.00 0.00 25 1010.9
20260504000036 83 4 3.5 7.8 0.00 0.00 0.00 25 1011.0
20260503234535 83 5 3.5 8.7 0.00 0.00 0.00 25 1011.1
20260503233151 83 3 2.6 6.1 0.00 0.00 0.00 25 1011.3
20260503223033 83 359 3.5 12.2 0.00 0.00 0.00 27 1012.1
20260503221535 83 2 2.6 7.0 0.00 0.00 0.00 27 1012.3
20260503220036 82 73 3.5 9.6 0.00 0.00 0.00 28 1012.5
20260503213034 82 38 3.5 7.8 0.00 0.00 0.00 28 1012.8